Vorticity
6 4 2 1 1 -2 3 -0 9 14 11 14 8 9 12 11 8 8 6 5 6 6 1 3 7 9 14 10 8 6 8 9 5 2 -3 4 6 9 9 7 7 5 6 2 3
7 3 2 3 4 3 1 6 11 15 12 11 8 9 11 13 9 6 7 5 6 6 6 9 9 13 11 9 9 8 14 11 7 11 15 7 5 10 6 5 9 4 5 10 13
-13 5 1 4 -0 5 8 5 9 13 11 9 8 9 11 12 10 7 9 9 9 12 14 15 13 11 8 7 4 6 4 11 10 5 8 15 10 10 13 16 5 6 4 10 12
3 3 3 5 -4 2 12 8 8 13 11 7 6 6 8 13 15 10 10 15 13 9 9 10 8 5 8 7 7 2 4 7 9 5 7 6 8 7 2 11 7 6 8 5 6
0 7 0 2 5 8 13 7 10 10 10 7 6 4 6 12 6 10 11 8 9 9 6 6 5 5 7 6 3 3 8 5 10 7 6 6 5 2 9 8 5 4 5 5 6
4 -1 0 7 5 7 16 9 9 10 10 7 5 4 8 12 6 5 7 8 8 8 6 6 6 4 3 4 5 7 6 6 4 8 5 1 6 5 18 3 2 5 4 3 4
2 3 4 9 7 16 17 7 8 7 6 7 5 5 13 7 9 6 6 6 5 5 3 2 5 5 4 5 3 5 5 6 11 9 6 -3 15 6 7 -6 9 5 4 5 6
6 1 16 11 10 22 7 7 7 8 6 7 6 6 17 5 8 7 8 6 7 4 3 2 4 4 5 6 7 5 5 9 13 6 4 -6 13 6 3 2 5 5 4 6 5
9 18 14 6 27 9 8 9 8 9 7 7 5 6 14 11 8 7 7 6 6 6 7 6 6 6 5 5 5 5 4 6 10 6 1 -6 5 3 7 6 6 5 2 2 4
13 11 7 12 6 7 7 4 7 10 11 8 4 7 11 7 5 6 6 6 8 7 5 4 5 4 4 5 7 8 6 7 7 10 1 6 0 0 3 5 4 4 5 6 6
11 10 9 11 3 8 5 6 6 4 5 6 6 8 11 10 8 3 6 4 5 8 5 5 5 10 8 8 6 7 7 7 7 5 8 3 1 3 6 2 4 3 2 5 6
7 7 9 6 12 8 1 5 8 8 7 9 8 8 8 7 10 5 8 5 5 5 6 7 8 10 9 9 8 7 3 2 3 6 11 5 -0 8 8 5 5 7 8 -1 6
6 9 9 9 11 3 4 4 5 6 8 12 7 8 8 5 10 7 6 5 5 7 9 6 9 6 8 6 8 6 7 3 3 -2 -1 10 3 -5 -3 6 4 2 -1 10 2
5 5 6 8 7 4 7 2 0 1 5 1 11 5 6 7 5 4 2 4 7 8 6 3 7 7 8 8 7 2 6 5 5 7 8 2 23 -16 -3 -5 -4 2 3 -3 -6
3 8 5 5 7 3 3 1 6 6 7 9 9 11 10 8 6 3 1 3 5 6 7 7 10 10 10 10 12 11 6 11 8 4 6 -13 12 8 7 7 4 5 3 5 -2
7 12 9 9 5 4 3 10 4 -4 6 1 -0 -0 4 5 7 7 6 10 9 5 3 8 10 11 7 9 9 13 9 8 7 8 10 -7 5 20 -5 1 1 -2 -2 5 4
4 -2 5 4 1 8 1 -6 5 1 4 5 8 8 10 9 9 9 6 6 5 9 17 17 14 10 7 -2 -1 -3 3 4 7 -1 7 -4 5 4 4 1 -5 -2 -3 3 15
25 11 -2 6 2 8 -3 5 3 4 8 2 9 9 9 8 9 9 10 11 14 14 13 8 10 8 15 6 3 4 -1 -3 10 4 9 5 9 10 5 13 21 19 16 11 9
14 15 6 6 1 3 12 -2 0 2 7 6 9 5 8 4 8 12 12 12 11 9 6 16 14 4 -5 -6 -4 7 11 1 5 4 4 7 4 8 11 13 16 17 13 16 15
12 19 11 -1 7 7 4 16 2 0 17 9 7 3 2 4 14 14 14 14 16 12 10 12 12 5 10 14 7 7 6 4 9 2 3 -1 2 10 16 18 19 17 14 14 16
-21 2 29 9 12 27 -2 1 13 18 0 16 5 2 7 10 9 7 10 12 11 3 -1 5 6 7 3 6 4 5 4 4 7 5 4 6 4 15 14 10 9 7 1 10 20
4 25 24 13 -0 10 19 5 -4 38 16 7 6 12 8 11 23 19 14 -4 0 8 5 3 -4 -3 5 2 7 10 6 6 7 -1 7 20 -2 18 10 4 6 4 21 20 9
-3 -5 18 16 -4 3 -3 2 2 8 24 12 11 9 18 17 16 11 -5 15 7 1 -5 2 -3 -0 3 2 6 4 6 10 12 12 9 4 7 21 17 19 16 14 13 18 22
16 -20 -7 19 -0 7 -4 -0 4 21 13 18 18 34 27 14 -14 6 15 9 4 0 3 2 -1 2 3 14 11 8 1 11 11 19 17 10 11 -1 -1 -8 -8 -2 -5 1 -15
-1 43 2 -13 -1 -23 9 10 20 28 27 31 29 12 -15 16 14 10 5 3 0 3 7 3 7 13 8 12 13 4 3 15 10 14 7 11 8 11 15 17 10 7 12 9 19
-2 8 17 24 10 15 11 15 26 34 14 -11 5 4 16 12 8 7 6 7 7 5 6 7 -1 11 2 16 16 9 10 21 21 23 19 14 11 3 22 39 34 18 25 21 15
-1 16 -3 8 17 32 28 25 -0 5 -0 -1 2 6 19 11 10 4 1 4 7 8 7 10 11 14 -4 20 10 -2 26 22 18 12 16 14 12 25 -8 -17 7 15 7 5 8
Height
5813 5814 5814 5814 5814 5814 5814 5812 5811 5810 5810 5810 5811 5812 5813 5815 5815 5817 5817 5819 5821 5821 5821 5823 5823 5823 5823 5822 5821 5822 5826 5829 5827 5826 5829 5826 5826 5824 5826 5830 5828 5825 5825 5825 5827
5805 5807 5807 5807 5807 5808 5807 5806 5806 5805 5805 5805 5805 5807 5808 5810 5810 5809 5814 5813 5815 5816 5816 5817 5817 5817 5818 5817 5816 5817 5820 5823 5820 5820 5824 5820 5819 5820 5822 5826 5827 5824 5821 5822 5822
5797 5799 5799 5800 5800 5800 5800 5799 5799 5798 5798 5799 5800 5801 5802 5805 5806 5803 5806 5808 5809 5810 5811 5811 5811 5812 5812 5812 5813 5813 5815 5817 5816 5814 5816 5817 5817 5818 5818 5820 5820 5817 5814 5815 5816
5788 5790 5791 5792 5791 5792 5792 5791 5792 5792 5792 5793 5795 5795 5798 5800 5801 5798 5800 5803 5804 5804 5805 5806 5806 5806 5808 5808 5808 5807 5809 5810 5812 5808 5810 5810 5812 5811 5813 5814 5813 5811 5808 5808 5810
5777 5780 5782 5783 5782 5783 5783 5784 5784 5784 5786 5787 5789 5792 5793 5797 5792 5794 5796 5796 5798 5800 5798 5797 5798 5799 5802 5804 5802 5803 5803 5803 5807 5804 5803 5802 5805 5805 5809 5806 5804 5802 5800 5801 5801
5767 5770 5773 5773 5773 5774 5775 5776 5777 5778 5780 5781 5783 5786 5788 5792 5784 5789 5791 5791 5791 5794 5793 5794 5793 5792 5795 5798 5796 5797 5798 5800 5801 5800 5798 5796 5797 5797 5803 5797 5795 5796 5795 5796 5795
5758 5761 5763 5762 5764 5765 5766 5767 5769 5770 5772 5775 5778 5780 5784 5783 5780 5782 5783 5786 5786 5787 5789 5788 5788 5787 5790 5792 5789 5792 5792 5793 5795 5794 5793 5788 5789 5792 5791 5786 5788 5790 5789 5787 5787
5747 5751 5751 5753 5755 5756 5756 5758 5760 5763 5764 5767 5770 5773 5778 5772 5774 5776 5779 5780 5779 5782 5783 5781 5780 5780 5780 5783 5783 5783 5782 5787 5790 5784 5784 5781 5783 5785 5779 5778 5781 5783 5783 5782 5780
5737 5739 5741 5743 5745 5747 5748 5749 5752 5755 5756 5760 5762 5763 5770 5768 5769 5770 5771 5774 5775 5776 5777 5775 5773 5774 5777 5776 5775 5777 5775 5774 5777 5777 5776 5774 5773 5779 5774 5776 5775 5775 5776 5774 5772
5726 5729 5732 5734 5737 5739 5739 5741 5744 5747 5750 5752 5753 5757 5761 5761 5761 5760 5762 5766 5768 5767 5768 5766 5766 5767 5771 5769 5768 5766 5763 5766 5770 5776 5768 5770 5765 5765 5768 5767 5766 5765 5765 5766 5767
5716 5718 5721 5724 5727 5730 5732 5734 5738 5740 5742 5745 5747 5748 5751 5754 5754 5754 5755 5757 5759 5761 5760 5760 5759 5764 5764 5760 5758 5758 5760 5757 5764 5764 5762 5761 5761 5763 5762 5760 5762 5761 5758 5759 5760
5705 5709 5711 5714 5718 5721 5724 5726 5731 5731 5733 5735 5736 5740 5741 5743 5747 5747 5747 5750 5751 5751 5751 5752 5752 5756 5755 5754 5751 5753 5753 5755 5753 5755 5751 5753 5756 5754 5752 5753 5753 5753 5753 5751 5751
5695 5699 5703 5705 5709 5714 5716 5719 5722 5721 5721 5731 5728 5732 5732 5732 5740 5740 5738 5741 5744 5744 5743 5742 5745 5744 5745 5744 5745 5745 5743 5744 5742 5742 5743 5743 5744 5744 5744 5743 5743 5743 5744 5744 5743
5685 5690 5694 5697 5702 5705 5709 5711 5712 5713 5712 5721 5722 5718 5723 5725 5726 5730 5728 5732 5735 5736 5734 5732 5736 5735 5734 5733 5734 5734 5736 5733 5732 5730 5731 5730 5731 5735 5731 5729 5730 5732 5732 5732 5731
5676 5680 5685 5689 5691 5697 5700 5701 5703 5707 5704 5706 5709 5712 5713 5716 5719 5719 5720 5719 5723 5725 5725 5727 5726 5725 5725 5727 5722 5726 5725 5724 5723 5721 5719 5719 5716 5726 5719 5715 5715 5716 5716 5716 5715
5666 5670 5675 5679 5682 5685 5688 5690 5695 5697 5692 5695 5696 5699 5704 5705 5706 5708 5710 5711 5712 5711 5713 5716 5715 5715 5716 5714 5714 5714 5713 5712 5710 5709 5705 5716 5704 5708 5709 5708 5704 5700 5699 5699 5699
5655 5660 5664 5668 5671 5674 5676 5680 5682 5680 5686 5688 5688 5689 5691 5694 5696 5697 5698 5700 5701 5702 5702 5703 5704 5705 5705 5705 5705 5703 5701 5698 5696 5695 5693 5699 5689 5690 5696 5693 5689 5685 5682 5678 5676
5642 5647 5651 5655 5657 5661 5664 5667 5665 5668 5674 5676 5678 5679 5681 5683 5684 5685 5688 5690 5691 5690 5691 5692 5694 5694 5695 5694 5693 5692 5690 5686 5678 5681 5679 5679 5673 5677 5673 5671 5668 5662 5657 5654 5654
5629 5630 5635 5640 5643 5648 5652 5649 5654 5660 5662 5664 5666 5668 5671 5672 5674 5674 5675 5677 5677 5677 5679 5681 5683 5683 5684 5682 5681 5678 5676 5672 5663 5661 5655 5661 5658 5656 5653 5648 5643 5638 5632 5630 5630
5616 5620 5622 5626 5628 5633 5634 5637 5642 5647 5650 5652 5654 5657 5658 5660 5662 5661 5661 5663 5664 5667 5668 5669 5670 5671 5669 5667 5664 5660 5658 5654 5648 5640 5635 5637 5635 5633 5629 5625 5621 5620 5616 5611 5608
5601 5606 5610 5612 5615 5616 5619 5626 5631 5634 5637 5640 5640 5644 5647 5648 5649 5649 5648 5651 5652 5654 5655 5655 5656 5657 5654 5652 5649 5646 5642 5638 5632 5627 5619 5615 5615 5616 5610 5607 5604 5600 5596 5596 5594
5594 5594 5598 5597 5602 5604 5609 5615 5620 5622 5625 5627 5629 5631 5633 5634 5635 5636 5638 5638 5640 5640 5639 5639 5637 5639 5640 5636 5631 5628 5627 5621 5611 5609 5602 5592 5593 5595 5597 5592 5587 5582 5578 5578 5577
5579 5581 5584 5587 5586 5594 5599 5603 5607 5608 5610 5615 5617 5619 5620 5622 5623 5625 5627 5627 5626 5624 5622 5624 5620 5621 5623 5624 5616 5612 5611 5606 5596 5587 5580 5577 5574 5579 5575 5572 5567 5565 5567 5568 5568
5567 5568 5572 5576 5578 5583 5587 5591 5594 5594 5599 5602 5605 5607 5610 5612 5614 5614 5614 5615 5615 5613 5611 5608 5607 5606 5608 5607 5596 5592 5593 5588 5578 5567 5565 5561 5559 5561 5559 5555 5552 5554 5549 5554 5552
5553 5554 5564 5566 5569 5571 5575 5579 5581 5584 5588 5592 5596 5600 5602 5601 5602 5601 5601 5602 5604 5601 5597 5594 5592 5589 5591 5587 5581 5576 5579 5575 5563 5558 5549 5548 5543 5540 5538 5537 5536 5537 5532 5533 5534
5544 5547 5552 5553 5555 5560 5564 5568 5572 5574 5578 5584 5587 5589 5589 5589 5588 5587 5589 5590 5589 5587 5582 5578 5573 5568 5571 5564 5560 5556 5560 5553 5551 5546 5536 5530 5526 5527 5524 5521 5519 5521 5518 5516 5516
5533 5534 5537 5540 5545 5550 5555 5559 5563 5566 5569 5572 5575 5577 5578 5577 5578 5578 5577 5576 5574 5571 5564 5559 5554 5548 5547 5546 5538 5535 5547 5538 5529 5529 5522 5516 5514 5514 5508 5507 5507 5507 5506 5504 5503